| time (UTC) | temp F | wind direction | speed MPH | gust MPH | rain 1hr in | rain 24hr in | rain mn in | humidity % | barometer mb |
| 20260906082911 | 83 | 72 | 5.0 | 10.0 | 0.00 | 0.00 | 0.00 | 52 | 1020.2 |
| 20260906082343 | 83 | 55 | 8.0 | 15.0 | 0.00 | 0.00 | 0.00 | 51 | 1020.2 |
| 20260906081914 | 82 | 73 | 9.0 | 15.0 | 0.00 | 0.00 | 0.00 | 51 | 1020.2 |
| 20260906081423 | 82 | 74 | 6.0 | 14.0 | 0.00 | 0.00 | 0.00 | 52 | 1020.1 |
| 20260906080834 | 83 | 50 | 4.0 | 12.0 | 0.00 | 0.00 | 0.00 | 53 | 1020.1 |
| 20260906080347 | 82 | 73 | 5.0 | 12.0 | 0.00 | 0.00 | 0.00 | 54 | 1020.1 |
| 20260906075910 | 82 | 68 | 7.0 | 12.0 | 0.00 | 0.00 | 0.00 | 54 | 1020.1 |
| 20260906075320 | 82 | 61 | 5.0 | 12.0 | 0.00 | 0.00 | 0.00 | 55 | 1020.1 |
| 20260906074854 | 81 | 59 | 4.0 | 12.0 | 0.00 | 0.00 | 0.00 | 56 | 1020.1 |
| 20260906074354 | 81 | 42 | 7.0 | 12.0 | 0.00 | 0.00 | 0.00 | 56 | 1019.9 |
| 20260906073854 | 81 | 41 | 5.0 | 10.0 | 0.00 | 0.00 | 0.00 | 57 | 1019.9 |
| 20260906073344 | 80 | 62 | 5.0 | 12.0 | 0.00 | 0.00 | 0.00 | 58 | 1019.9 |
| 20260906072946 | 80 | 74 | 7.0 | 12.0 | 0.00 | 0.00 | 0.00 | 58 | 1019.9 |
| 20260906072334 | 80 | 65 | 7.0 | 11.0 | 0.00 | 0.00 | 0.00 | 59 | 1019.9 |
| 20260906071920 | 79 | 68 | 7.0 | 12.0 | 0.00 | 0.00 | 0.00 | 60 | 1019.9 |
| 20260906071331 | 79 | 52 | 6.0 | 12.0 | 0.00 | 0.00 | 0.00 | 62 | 1019.9 |
| 20260906070846 | 79 | 40 | 4.0 | 10.0 | 0.00 | 0.00 | 0.00 | 63 | 1019.9 |
| 20260906070323 | 78 | 45 | 6.0 | 12.0 | 0.00 | 0.00 | 0.00 | 63 | 1019.9 |
| 20260906065831 | 78 | 43 | 5.0 | 12.0 | 0.00 | 0.00 | 0.00 | 65 | 1019.8 |
| 20260906065353 | 78 | 38 | 6.0 | 11.0 | 0.00 | 0.00 | 0.00 | 66 | 1019.8 |
| 20260906064820 | 77 | 49 | 7.0 | 10.0 | 0.00 | 0.00 | 0.00 | 66 | 1019.8 |
| 20260906064334 | 77 | 37 | 6.0 | 9.0 | 0.00 | 0.00 | 0.00 | 67 | 1019.7 |
| 20260906063918 | 77 | 45 | 3.0 | 9.0 | 0.00 | 0.00 | 0.00 | 68 | 1019.7 |
| 20260906063329 | 77 | 39 | 4.0 | 9.0 | 0.00 | 0.00 | 0.00 | 68 | 1019.7 |
| 20260906062847 | 76 | 31 | 4.0 | 8.0 | 0.00 | 0.00 | 0.00 | 69 | 1019.4 |
| 20260906062409 | 76 | 36 | 5.0 | 9.0 | 0.00 | 0.00 | 0.00 | 69 | 1019.4 |
| 20260906061840 | 76 | 38 | 0.0 | 0.0 | 0.00 | 0.00 | 0.00 | 69 | 1019.4 |
| 20260906061337 | 76 | 49 | 0.0 | 0.0 | 0.00 | 0.00 | 0.00 | 70 | 1019.4 |
| 20260906060940 | 75 | 50 | 0.0 | 0.0 | 0.00 | 0.00 | 0.00 | 70 | 1019.4 |
| 20260906060331 | 75 | 50 | 0.0 | 0.0 | 0.00 | 0.00 | 0.00 | 70 | 1019.4 |
| 20260906055840 | 75 | 53 | 0.0 | 0.0 | 0.00 | 0.00 | 0.00 | 70 | 1019.1 |
| 20260906055352 | 75 | 55 | 0.0 | 0.0 | 0.00 | 0.00 | 0.00 | 71 | 1019.1 |
| 20260906054839 | 74 | 56 | 0.0 | 0.0 | 0.00 | 0.00 | 0.00 | 71 | 1019.1 |
| 20260906054406 | 74 | 63 | 0.0 | 0.0 | 0.00 | 0.00 | 0.00 | 72 | 1018.9 |
| 20260906053831 | 74 | 63 | 0.0 | 0.0 | 0.00 | 0.00 | 0.00 | 72 | 1018.9 |
| 20260906053416 | 74 | 66 | 0.0 | 0.0 | 0.00 | 0.00 | 0.00 | 73 | 1018.9 |
| 20260906052825 | 73 | 67 | 0.0 | 0.0 | 0.00 | 0.00 | 0.00 | 74 | 1018.6 |
| 20260906052334 | 73 | 68 | 0.0 | 0.0 | 0.00 | 0.00 | 0.00 | 74 | 1018.6 |
| 20260906051832 | 73 | 72 | 0.0 | 0.0 | 0.00 | 0.00 | 0.00 | 75 | 1018.6 |
| 20260906051325 | 73 | 77 | 0.0 | 0.0 | 0.00 | 0.00 | 0.00 | 76 | 1018.5 |
| 20260906050838 | 72 | 82 | 0.0 | 0.0 | 0.00 | 0.00 | 0.00 | 76 | 1018.5 |
| 20260906050355 | 72 | 84 | 0.0 | 0.0 | 0.00 | 0.00 | 0.00 | 76 | 1018.5 |
| 20260906045824 | 72 | 86 | 0.0 | 0.0 | 0.00 | 0.00 | 0.00 | 77 | 1018.4 |
| 20260906045412 | 72 | 87 | 0.0 | 0.0 | 0.00 | 0.00 | 0.00 | 77 | 1018.4 |
| 20260906044918 | 72 | 90 | 0.0 | 0.0 | 0.00 | 0.00 | 0.00 | 77 | 1018.4 |
| 20260906044324 | 72 | 90 | 0.0 | 0.0 | 0.00 | 0.00 | 0.00 | 77 | 1018.4 |
| 20260906043827 | 72 | 90 | 0.0 | 0.0 | 0.00 | 0.00 | 0.00 | 77 | 1018.4 |
| 20260906043423 | 72 | 90 | 0.0 | 0.0 | 0.00 | 0.00 | 0.00 | 77 | 1018.4 |
| 20260906042910 | 72 | 90 | 0.0 | 0.0 | 0.00 | 0.00 | 0.00 | 77 | 1018.3 |
| 20260906042421 | 72 | 90 | 0.0 | 0.0 | 0.00 | 0.00 | 0.00 | 77 | 1018.3 |
| 20260906041338 | 72 | 90 | 0.0 | 0.0 | 0.00 | 0.00 | 0.00 | 77 | 1018.3 |
| 20260906040847 | 72 | 90 | 0.0 | 0.0 | 0.00 | 0.00 | 0.00 | 77 | 1018.3 |
| 20260906040413 | 73 | 90 | 0.0 | 0.0 | 0.00 | 0.00 | 0.00 | 77 | 1018.3 |
| 20260906035835 | 73 | 90 | 0.0 | 0.0 | 0.00 | 0.00 | 0.00 | 77 | 1018.1 |
| 20260906035323 | 73 | 92 | 0.0 | 0.0 | 0.00 | 0.00 | 0.00 | 76 | 1018.1 |
| 20260906034848 | 73 | 92 | 0.0 | 0.0 | 0.00 | 0.00 | 0.00 | 76 | 1018.1 |
| 20260906034342 | 73 | 93 | 0.0 | 0.0 | 0.00 | 0.00 | 0.00 | 76 | 1017.9 |
| 20260906033904 | 73 | 93 | 0.0 | 0.0 | 0.00 | 0.00 | 0.00 | 75 | 1017.9 |
| 20260906033333 | 73 | 94 | 0.0 | 0.0 | 0.00 | 0.00 | 0.00 | 75 | 1017.9 |
| 20260906032937 | 73 | 95 | 0.0 | 0.0 | 0.00 | 0.00 | 0.00 | 75 | 1017.9 |
| 20260906032324 | 73 | 95 | 0.0 | 0.0 | 0.00 | 0.00 | 0.00 | 76 | 1017.9 |
| 20260906031908 | 73 | 96 | 0.0 | 0.0 | 0.00 | 0.00 | 0.00 | 76 | 1017.9 |
| 20260906031407 | 73 | 97 | 0.0 | 0.0 | 0.00 | 0.00 | 0.00 | 76 | 1017.9 |
| 20260906030845 | 73 | 97 | 0.0 | 0.0 | 0.00 | 0.00 | 0.00 | 76 | 1017.9 |
| 20260906030358 | 73 | 97 | 0.0 | 0.0 | 0.00 | 0.00 | 0.00 | 75 | 1017.9 |
| 20260906025832 | 73 | 97 | 0.0 | 0.0 | 0.00 | 0.00 | 0.00 | 75 | 1017.9 |
| 20260906025343 | 73 | 97 | 0.0 | 0.0 | 0.00 | 0.00 | 0.00 | 75 | 1017.9 |
| 20260906024915 | 73 | 97 | 0.0 | 0.0 | 0.00 | 0.00 | 0.00 | 75 | 1017.9 |
| 20260906024345 | 74 | 97 | 0.0 | 0.0 | 0.00 | 0.00 | 0.00 | 75 | 1017.8 |
| 20260906023831 | 74 | 97 | 0.0 | 0.0 | 0.00 | 0.00 | 0.00 | 75 | 1017.8 |
| 20260906023348 | 74 | 97 | 0.0 | 0.0 | 0.00 | 0.00 | 0.00 | 75 | 1017.8 |
| 20260906022823 | 74 | 97 | 0.0 | 0.0 | 0.00 | 0.00 | 0.00 | 74 | 1017.8 |
| 20260906022336 | 74 | 97 | 0.0 | 0.0 | 0.00 | 0.00 | 0.00 | 74 | 1017.8 |
| 20260906021436 | 74 | 97 | 0.0 | 0.0 | 0.00 | 0.00 | 0.00 | 74 | 1017.7 |
| 20260906020857 | 74 | 97 | 0.0 | 0.0 | 0.00 | 0.00 | 0.00 | 74 | 1017.7 |
| 20260906020329 | 74 | 97 | 0.0 | 0.0 | 0.00 | 0.00 | 0.00 | 74 | 1017.7 |
| 20260906015828 | 74 | 97 | 0.0 | 0.0 | 0.00 | 0.00 | 0.00 | 75 | 1017.5 |
| 20260906015355 | 74 | 97 | 0.0 | 0.0 | 0.00 | 0.00 | 0.00 | 75 | 1017.5 |
| 20260906014834 | 74 | 98 | 0.0 | 0.0 | 0.00 | 0.00 | 0.00 | 75 | 1017.5 |
| 20260906014409 | 74 | 103 | 0.0 | 0.0 | 0.00 | 0.00 | 0.00 | 75 | 1017.5 |
| 20260906013851 | 74 | 104 | 0.0 | 0.0 | 0.00 | 0.00 | 0.00 | 75 | 1017.5 |
| 20260906013341 | 74 | 126 | 0.0 | 0.0 | 0.00 | 0.00 | 0.00 | 76 | 1017.5 |
| 20260906012820 | 74 | 127 | 0.0 | 0.0 | 0.00 | 0.00 | 0.00 | 77 | 1017.4 |
| 20260906012353 | 74 | 129 | 0.0 | 0.0 | 0.00 | 0.00 | 0.00 | 77 | 1017.4 |
| 20260906011829 | 74 | 129 | 0.0 | 0.0 | 0.00 | 0.00 | 0.00 | 77 | 1017.4 |
| 20260906011432 | 74 | 130 | 0.0 | 0.0 | 0.00 | 0.00 | 0.00 | 78 | 1017.4 |
| 20260906010827 | 75 | 131 | 0.0 | 0.0 | 0.00 | 0.00 | 0.00 | 78 | 1017.4 |
| 20260906010408 | 75 | 131 | 0.0 | 0.0 | 0.00 | 0.00 | 0.00 | 78 | 1017.4 |
| 20260906005855 | 75 | 131 | 0.0 | 0.0 | 0.00 | 0.00 | 0.00 | 78 | 1017.4 |
| 20260906005404 | 75 | 132 | 0.0 | 0.0 | 0.00 | 0.00 | 0.00 | 79 | 1017.4 |
| 20260906004903 | 75 | 132 | 0.0 | 0.0 | 0.00 | 0.00 | 0.00 | 79 | 1017.4 |
| 20260906004445 | 75 | 132 | 0.0 | 0.0 | 0.00 | 0.00 | 0.00 | 80 | 1017.6 |
| 20260906003829 | 75 | 133 | 0.0 | 0.0 | 0.00 | 0.00 | 0.00 | 80 | 1017.6 |
| 20260906003406 | 75 | 133 | 0.0 | 0.0 | 0.00 | 0.00 | 0.00 | 81 | 1017.6 |
| 20260906002836 | 75 | 133 | 0.0 | 0.0 | 0.00 | 0.00 | 0.00 | 82 | 1017.5 |
| 20260906002347 | 75 | 133 | 0.0 | 0.0 | 0.00 | 0.00 | 0.00 | 83 | 1017.5 |
| 20260906001856 | 75 | 133 | 0.0 | 0.0 | 0.00 | 0.00 | 0.00 | 83 | 1017.5 |
| 20260906001322 | 75 | 133 | 0.0 | 0.0 | 0.00 | 0.00 | 0.00 | 84 | 1017.5 |
| 20260906000838 | 75 | 133 | 0.0 | 0.0 | 0.00 | 0.00 | 0.00 | 85 | 1017.5 |
| 20260906000333 | 75 | 133 | 0.0 | 0.0 | 0.00 | 0.00 | 0.00 | 85 | 1017.5 |
| 20260905235921 | 75 | 133 | 0.0 | 0.0 | 0.00 | 0.00 | 0.00 | 85 | 1017.4 |
| 20260905235413 | 75 | 133 | 0.0 | 0.0 | 0.00 | 0.00 | 0.00 | 85 | 1017.4 |
| 20260905234825 | 75 | 133 | 0.0 | 0.0 | 0.00 | 0.00 | 0.00 | 85 | 1017.4 |
| 20260905234336 | 75 | 133 | 0.0 | 0.0 | 0.00 | 0.00 | 0.00 | 86 | 1017.3 |
| 20260905233844 | 75 | 133 | 0.0 | 0.0 | 0.00 | 0.00 | 0.00 | 86 | 1017.3 |
| 20260905233346 | 75 | 133 | 0.0 | 0.0 | 0.00 | 0.00 | 0.00 | 86 | 1017.3 |
| 20260905232843 | 75 | 133 | 0.0 | 0.0 | 0.00 | 0.00 | 0.00 | 86 | 1017.3 |
| 20260905232345 | 75 | 134 | 0.0 | 0.0 | 0.00 | 0.00 | 0.00 | 86 | 1017.3 |
| 20260905231834 | 75 | 134 | 0.0 | 0.0 | 0.00 | 0.00 | 0.00 | 86 | 1017.3 |
| 20260905231344 | 76 | 134 | 0.0 | 0.0 | 0.00 | 0.00 | 0.00 | 87 | 1017.3 |
| 20260905230919 | 76 | 134 | 0.0 | 0.0 | 0.00 | 0.00 | 0.00 | 87 | 1017.3 |
| 20260905230336 | 76 | 143 | 0.0 | 0.0 | 0.00 | 0.00 | 0.00 | 88 | 1017.3 |
| 20260905225824 | 76 | 143 | 0.0 | 0.0 | 0.00 | 0.00 | 0.00 | 88 | 1017.3 |
| 20260905225342 | 76 | 143 | 0.0 | 0.0 | 0.00 | 0.00 | 0.00 | 88 | 1017.3 |
| 20260905224833 | 76 | 143 | 0.0 | 0.0 | 0.00 | 0.00 | 0.00 | 87 | 1017.3 |
| 20260905224329 | 76 | 143 | 0.0 | 0.0 | 0.00 | 0.00 | 0.00 | 87 | 1017.3 |
| 20260905223401 | 76 | 143 | 0.0 | 0.0 | 0.00 | 0.00 | 0.00 | 87 | 1017.3 |
| 20260905222907 | 76 | 143 | 0.0 | 0.0 | 0.00 | 0.00 | 0.00 | 87 | 1017.2 |
| 20260905222349 | 77 | 143 | 0.0 | 0.0 | 0.00 | 0.00 | 0.00 | 87 | 1017.2 |
| 20260905221855 | 77 | 143 | 0.0 | 0.0 | 0.00 | 0.00 | 0.00 | 87 | 1017.2 |
| 20260905221324 | 77 | 143 | 0.0 | 0.0 | 0.00 | 0.00 | 0.00 | 86 | 1016.9 |
| 20260905220842 | 77 | 143 | 0.0 | 0.0 | 0.00 | 0.00 | 0.00 | 86 | 1016.9 |
| 20260905220400 | 77 | 143 | 0.0 | 0.0 | 0.00 | 0.00 | 0.00 | 86 | 1016.9 |
| 20260905215902 | 77 | 143 | 0.0 | 0.0 | 0.00 | 0.00 | 0.00 | 86 | 1016.7 |
| 20260905215408 | 77 | 143 | 0.0 | 0.0 | 0.00 | 0.00 | 0.00 | 86 | 1016.7 |
| 20260905214840 | 78 | 143 | 0.0 | 0.0 | 0.00 | 0.00 | 0.00 | 85 | 1016.7 |
| 20260905214416 | 78 | 143 | 0.0 | 0.0 | 0.00 | 0.00 | 0.00 | 85 | 1016.5 |
| 20260905213926 | 78 | 143 | 0.0 | 0.0 | 0.00 | 0.00 | 0.00 | 85 | 1016.5 |
| 20260905213354 | 78 | 143 | 0.0 | 0.0 | 0.00 | 0.00 | 0.00 | 85 | 1016.5 |
| 20260905212838 | 78 | 143 | 0.0 | 0.0 | 0.00 | 0.00 | 0.00 | 84 | 1016.4 |
| 20260905212325 | 78 | 143 | 0.0 | 0.0 | 0.00 | 0.00 | 0.00 | 84 | 1016.4 |
| 20260905211836 | 78 | 143 | 0.0 | 0.0 | 0.00 | 0.00 | 0.00 | 84 | 1016.4 |
| 20260905211330 | 78 | 143 | 0.0 | 0.0 | 0.00 | 0.00 | 0.00 | 83 | 1016.3 |
| 20260905210828 | 79 | 143 | 0.0 | 0.0 | 0.00 | 0.00 | 0.00 | 83 | 1016.3 |
| 20260905210328 | 79 | 143 | 0.0 | 0.0 | 0.00 | 0.00 | 0.00 | 82 | 1016.3 |
| 20260905205838 | 79 | 143 | 0.0 | 0.0 | 0.00 | 0.00 | 0.00 | 82 | 1016.3 |
| 20260905205323 | 80 | 143 | 0.0 | 0.0 | 0.00 | 0.00 | 0.00 | 81 | 1016.3 |
| 20260905204834 | 80 | 143 | 0.0 | 0.0 | 0.00 | 0.00 | 0.00 | 81 | 1016.3 |
| 20260905204341 | 80 | 143 | 0.0 | 0.0 | 0.00 | 0.00 | 0.00 | 80 | 1016.3 |
| 20260905203406 | 80 | 143 | 0.0 | 0.0 | 0.00 | 0.00 | 0.00 | 80 | 1016.3 |
| 20260905202859 | 80 | 143 | 0.0 | 0.0 | 0.00 | 0.00 | 0.00 | 80 | 1016.2 |
| 20260905202440 | 80 | 143 | 0.0 | 0.0 | 0.00 | 0.00 | 0.00 | 79 | 1016.2 |
| 20260905201853 | 80 | 143 | 0.0 | 0.0 | 0.00 | 0.00 | 0.00 | 79 | 1016.2 |
| 20260905201418 | 81 | 143 | 0.0 | 0.0 | 0.00 | 0.00 | 0.00 | 79 | 1015.9 |
| 20260905200847 | 81 | 143 | 0.0 | 0.0 | 0.00 | 0.00 | 0.00 | 78 | 1015.9 |
| 20260905200330 | 81 | 143 | 0.0 | 0.0 | 0.00 | 0.00 | 0.00 | 78 | 1015.9 |
| 20260905195914 | 81 | 143 | 0.0 | 0.0 | 0.00 | 0.00 | 0.00 | 78 | 1015.8 |
| 20260905195347 | 81 | 143 | 0.0 | 0.0 | 0.00 | 0.00 | 0.00 | 77 | 1015.8 |
| 20260905194358 | 81 | 143 | 0.0 | 0.0 | 0.00 | 0.00 | 0.00 | 77 | 1015.6 |
| 20260905193919 | 82 | 143 | 0.0 | 0.0 | 0.00 | 0.00 | 0.00 | 76 | 1015.6 |
| 20260905193408 | 82 | 143 | 0.0 | 0.0 | 0.00 | 0.00 | 0.00 | 75 | 1015.6 |
| 20260905192828 | 82 | 143 | 0.0 | 0.0 | 0.00 | 0.00 | 0.00 | 75 | 1015.3 |
| 20260905192334 | 82 | 143 | 0.0 | 0.0 | 0.00 | 0.00 | 0.00 | 75 | 1015.3 |
| 20260905191858 | 82 | 143 | 0.0 | 0.0 | 0.00 | 0.00 | 0.00 | 75 | 1015.3 |
| 20260905190907 | 83 | 143 | 0.0 | 0.0 | 0.00 | 0.00 | 0.00 | 74 | 1015.2 |
| 20260905190335 | 83 | 143 | 0.0 | 0.0 | 0.00 | 0.00 | 0.00 | 73 | 1015.2 |
| 20260905185829 | 83 | 143 | 0.0 | 0.0 | 0.00 | 0.00 | 0.00 | 73 | 1015.0 |
| 20260905185328 | 83 | 143 | 0.0 | 0.0 | 0.00 | 0.00 | 0.00 | 72 | 1015.0 |
| 20260905184929 | 83 | 143 | 0.0 | 0.0 | 0.00 | 0.00 | 0.00 | 72 | 1015.0 |
| 20260905184352 | 83 | 143 | 0.0 | 0.0 | 0.00 | 0.00 | 0.00 | 72 | 1014.7 |
| 20260905183908 | 84 | 143 | 0.0 | 0.0 | 0.00 | 0.00 | 0.00 | 71 | 1014.7 |
| 20260905183337 | 84 | 143 | 0.0 | 0.0 | 0.00 | 0.00 | 0.00 | 71 | 1014.7 |
| 20260905182851 | 84 | 143 | 0.0 | 0.0 | 0.00 | 0.00 | 0.00 | 70 | 1014.6 |
| 20260905181856 | 85 | 143 | 0.0 | 0.0 | 0.00 | 0.00 | 0.00 | 69 | 1014.6 |
| 20260905181439 | 85 | 143 | 0.0 | 0.0 | 0.00 | 0.00 | 0.00 | 69 | 1014.4 |
| 20260905180855 | 85 | 143 | 0.0 | 0.0 | 0.00 | 0.00 | 0.00 | 69 | 1014.4 |
| 20260905180333 | 85 | 143 | 0.0 | 0.0 | 0.00 | 0.00 | 0.00 | 69 | 1014.4 |
| 20260905175917 | 85 | 143 | 0.0 | 0.0 | 0.00 | 0.00 | 0.00 | 68 | 1014.2 |
| 20260905175436 | 85 | 143 | 0.0 | 0.0 | 0.00 | 0.00 | 0.00 | 69 | 1014.2 |
| 20260905174822 | 86 | 143 | 0.0 | 0.0 | 0.00 | 0.00 | 0.00 | 69 | 1014.2 |
| 20260905174349 | 86 | 143 | 0.0 | 0.0 | 0.00 | 0.00 | 0.00 | 69 | 1014.1 |
| 20260905173934 | 86 | 143 | 0.0 | 0.0 | 0.00 | 0.00 | 0.00 | 68 | 1014.1 |
| 20260905173341 | 86 | 143 | 0.0 | 4.0 | 0.00 | 0.00 | 0.00 | 68 | 1014.1 |
| 20260905172900 | 86 | 143 | 0.0 | 4.0 | 0.00 | 0.00 | 0.00 | 67 | 1013.9 |
| 20260905172402 | 87 | 143 | 0.0 | 1.0 | 0.00 | 0.00 | 0.00 | 67 | 1013.9 |
| 20260905171852 | 87 | 143 | 0.0 | 1.0 | 0.00 | 0.00 | 0.00 | 66 | 1013.9 |
| 20260905171333 | 87 | 143 | 0.0 | 1.0 | 0.00 | 0.00 | 0.00 | 66 | 1013.7 |
| 20260905170907 | 87 | 143 | 0.0 | 1.0 | 0.00 | 0.00 | 0.00 | 66 | 1013.7 |
| 20260905170351 | 87 | 143 | 0.0 | 0.0 | 0.00 | 0.00 | 0.00 | 66 | 1013.7 |
| 20260905165343 | 88 | 143 | 0.0 | 1.0 | 0.00 | 0.00 | 0.00 | 65 | 1013.7 |
| 20260905164831 | 88 | 147 | 0.0 | 0.0 | 0.00 | 0.00 | 0.00 | 64 | 1013.7 |
| 20260905164344 | 88 | 148 | 0.0 | 0.0 | 0.00 | 0.00 | 0.00 | 63 | 1013.6 |
| 20260905163826 | 88 | 148 | 0.0 | 0.0 | 0.00 | 0.00 | 0.00 | 63 | 1013.6 |
| 20260905163357 | 88 | 148 | 0.0 | 1.0 | 0.00 | 0.00 | 0.00 | 64 | 1013.6 |
| 20260905162826 | 88 | 148 | 0.0 | 0.0 | 0.00 | 0.00 | 0.00 | 63 | 1013.6 |
| 20260905162415 | 88 | 148 | 0.0 | 0.0 | 0.00 | 0.00 | 0.00 | 63 | 1013.6 |
| 20260905161827 | 88 | 148 | 0.0 | 4.0 | 0.00 | 0.00 | 0.00 | 64 | 1013.6 |
| 20260905161408 | 88 | 148 | 0.0 | 7.0 | 0.00 | 0.00 | 0.00 | 64 | 1013.5 |
| 20260905160840 | 88 | 149 | 3.0 | 7.0 | 0.00 | 0.00 | 0.00 | 63 | 1013.5 |
| 20260905160402 | 89 | 139 | 0.0 | 5.0 | 0.00 | 0.00 | 0.00 | 64 | 1013.5 |
| 20260905155917 | 89 | 139 | 3.0 | 5.0 | 0.00 | 0.00 | 0.00 | 64 | 1013.3 |
| 20260905155418 | 89 | 142 | 1.0 | 4.0 | 0.00 | 0.00 | 0.00 | 64 | 1013.3 |
| 20260905154822 | 89 | 144 | 0.0 | 5.0 | 0.00 | 0.00 | 0.00 | 64 | 1013.3 |
| 20260905154346 | 88 | 145 | 1.0 | 7.0 | 0.00 | 0.00 | 0.00 | 64 | 1013.3 |
| 20260905153918 | 89 | 143 | 4.0 | 7.0 | 0.00 | 0.00 | 0.00 | 64 | 1013.3 |
| 20260905152847 | 89 | 135 | 0.0 | 6.0 | 0.00 | 0.00 | 0.00 | 64 | 1013.2 |
| 20260905152359 | 89 | 142 | 4.0 | 6.0 | 0.00 | 0.00 | 0.00 | 64 | 1013.2 |
| 20260905151849 | 89 | 126 | 3.0 | 6.0 | 0.00 | 0.00 | 0.00 | 64 | 1013.2 |
| 20260905151331 | 89 | 165 | 3.0 | 6.0 | 0.00 | 0.00 | 0.00 | 64 | 1013.2 |
| 20260905150915 | 89 | 166 | 3.0 | 8.0 | 0.00 | 0.00 | 0.00 | 64 | 1013.2 |
| 20260905150324 | 89 | 178 | 4.0 | 8.0 | 0.00 | 0.00 | 0.00 | 64 | 1013.2 |
| 20260905145335 | 89 | 150 | 3.0 | 9.0 | 0.00 | 0.00 | 0.00 | 62 | 1013.2 |
| 20260905144825 | 90 | 149 | 3.0 | 9.0 | 0.00 | 0.00 | 0.00 | 63 | 1013.2 |
| 20260905144333 | 90 | 176 | 4.0 | 8.0 | 0.00 | 0.00 | 0.00 | 63 | 1013.2 |
| 20260905143836 | 90 | 156 | 5.0 | 8.0 | 0.00 | 0.00 | 0.00 | 62 | 1013.2 |
| 20260905143429 | 90 | 115 | 3.0 | 7.0 | 0.00 | 0.00 | 0.00 | 62 | 1013.2 |
| 20260905142923 | 90 | 129 | 0.0 | 8.0 | 0.00 | 0.00 | 0.00 | 62 | 1013.3 |
| 20260905142326 | 90 | 123 | 2.0 | 7.0 | 0.00 | 0.00 | 0.00 | 62 | 1013.3 |
| 20260905141853 | 90 | 107 | 2.0 | 7.0 | 0.00 | 0.00 | 0.00 | 62 | 1013.3 |
| 20260905141350 | 91 | 85 | 3.0 | 9.0 | 0.00 | 0.00 | 0.00 | 60 | 1013.4 |
| 20260905140825 | 93 | 110 | 1.0 | 9.0 | 0.00 | 0.00 | 0.00 | 58 | 1013.4 |
| 20260905140340 | 93 | 220 | 0.0 | 6.0 | 0.00 | 0.00 | 0.00 | 51 | 1013.4 |
| 20260905135827 | 93 | 219 | 0.0 | 5.0 | 0.00 | 0.00 | 0.00 | 52 | 1013.5 |
| 20260905135410 | 92 | 219 | 2.0 | 5.0 | 0.00 | 0.00 | 0.00 | 52 | 1013.5 |
| 20260905134906 | 92 | 205 | 1.0 | 5.0 | 0.00 | 0.00 | 0.00 | 52 | 1013.5 |
| 20260905134333 | 92 | 194 | 0.0 | 5.0 | 0.00 | 0.00 | 0.00 | 52 | 1013.4 |
| 20260905133825 | 92 | 194 | 1.0 | 7.0 | 0.00 | 0.00 | 0.00 | 53 | 1013.4 |
| 20260905133416 | 92 | 195 | 4.0 | 7.0 | 0.00 | 0.00 | 0.00 | 53 | 1013.4 |
| 20260905132850 | 92 | 155 | 0.0 | 5.0 | 0.00 | 0.00 | 0.00 | 53 | 1013.7 |
| 20260905132349 | 92 | 111 | 0.0 | 0.0 | 0.00 | 0.00 | 0.00 | 53 | 1013.7 |
| 20260905131839 | 92 | 98 | 0.0 | 0.0 | 0.00 | 0.00 | 0.00 | 53 | 1013.7 |
| 20260905131338 | 92 | 98 | 0.0 | 0.0 | 0.00 | 0.00 | 0.00 | 53 | 1013.7 |
| 20260905130829 | 92 | 97 | 0.0 | 0.0 | 0.00 | 0.00 | 0.00 | 53 | 1013.7 |
| 20260905130337 | 92 | 97 | 0.0 | 0.0 | 0.00 | 0.00 | 0.00 | 54 | 1013.7 |
| 20260905125823 | 91 | 98 | 0.0 | 0.0 | 0.00 | 0.00 | 0.00 | 55 | 1013.9 |
| 20260905125354 | 91 | 98 | 0.0 | 0.0 | 0.00 | 0.00 | 0.00 | 55 | 1013.9 |
| 20260905124824 | 90 | 98 | 0.0 | 0.0 | 0.00 | 0.00 | 0.00 | 56 | 1013.9 |
| 20260905124342 | 90 | 98 | 0.0 | 0.0 | 0.00 | 0.00 | 0.00 | 56 | 1014.1 |
| 20260905123850 | 90 | 98 | 0.0 | 0.0 | 0.00 | 0.00 | 0.00 | 55 | 1014.1 |
| 20260905123341 | 90 | 98 | 0.0 | 0.0 | 0.00 | 0.00 | 0.00 | 56 | 1014.1 |
| 20260905122830 | 90 | 114 | 0.0 | 0.0 | 0.00 | 0.00 | 0.00 | 56 | 1014.2 |
| 20260905122349 | 90 | 115 | 0.0 | 0.0 | 0.00 | 0.00 | 0.00 | 56 | 1014.2 |
| 20260905121824 | 90 | 115 | 0.0 | 0.0 | 0.00 | 0.00 | 0.00 | 56 | 1014.2 |
| 20260905121337 | 90 | 115 | 0.0 | 0.0 | 0.00 | 0.00 | 0.00 | 57 | 1014.2 |
| 20260905120832 | 90 | 115 | 0.0 | 0.0 | 0.00 | 0.00 | 0.00 | 56 | 1014.2 |
| 20260905120325 | 90 | 115 | 0.0 | 0.0 | 0.00 | 0.00 | 0.00 | 56 | 1014.2 |
| 20260905115838 | 90 | 115 | 0.0 | 0.0 | 0.00 | 0.00 | 0.00 | 56 | 1014.2 |
| 20260905115325 | 91 | 103 | 0.0 | 0.0 | 0.00 | 0.00 | 0.00 | 56 | 1014.2 |
| 20260905114832 | 91 | 103 | 0.0 | 0.0 | 0.00 | 0.00 | 0.00 | 56 | 1014.2 |
| 20260905114342 | 90 | 103 | 0.0 | 0.0 | 0.00 | 0.00 | 0.00 | 57 | 1014.2 |
| 20260905113832 | 90 | 103 | 0.0 | 0.0 | 0.00 | 0.00 | 0.00 | 58 | 1014.2 |
| 20260905113403 | 89 | 102 | 0.0 | 0.0 | 0.00 | 0.00 | 0.00 | 58 | 1014.2 |
| 20260905112858 | 88 | 97 | 0.0 | 5.0 | 0.00 | 0.00 | 0.00 | 60 | 1014.4 |
| 20260905112327 | 88 | 97 | 3.0 | 8.0 | 0.00 | 0.00 | 0.00 | 61 | 1014.4 |
| 20260905111928 | 88 | 94 | 3.0 | 8.0 | 0.00 | 0.00 | 0.00 | 61 | 1014.4 |
| 20260905111342 | 88 | 53 | 0.0 | 5.0 | 0.00 | 0.00 | 0.00 | 61 | 1014.5 |
| 20260905110838 | 87 | 53 | 0.0 | 6.0 | 0.00 | 0.00 | 0.00 | 62 | 1014.5 |
| 20260905110417 | 87 | 50 | 2.0 | 6.0 | 0.00 | 0.00 | 0.00 | 62 | 1014.5 |
| 20260905105835 | 87 | 36 | 0.0 | 6.0 | 0.00 | 0.00 | 0.00 | 62 | 1014.5 |
| 20260905105326 | 87 | 35 | 0.0 | 5.0 | 0.00 | 0.00 | 0.00 | 63 | 1014.5 |
| 20260905104850 | 87 | 35 | 1.0 | 5.0 | 0.00 | 0.00 | 0.00 | 63 | 1014.5 |
| 20260905103844 | 87 | 15 | 0.0 | 6.0 | 0.00 | 0.00 | 0.00 | 64 | 1014.7 |
| 20260905103347 | 87 | 22 | 2.0 | 6.0 | 0.00 | 0.00 | 0.00 | 63 | 1014.7 |
| 20260905102820 | 87 | 34 | 0.0 | 0.0 | 0.00 | 0.00 | 0.00 | 64 | 1014.7 |
| 20260905102341 | 86 | 34 | 0.0 | 0.0 | 0.00 | 0.00 | 0.00 | 66 | 1014.7 |
| 20260905101929 | 85 | 34 | 0.0 | 0.0 | 0.00 | 0.00 | 0.00 | 66 | 1014.7 |
| 20260905101337 | 86 | 35 | 0.0 | 0.0 | 0.00 | 0.00 | 0.00 | 66 | 1014.6 |
| 20260905100910 | 85 | 35 | 0.0 | 0.0 | 0.00 | 0.00 | 0.00 | 67 | 1014.6 |
| 20260905100410 | 85 | 35 | 0.0 | 0.0 | 0.00 | 0.00 | 0.00 | 66 | 1014.6 |
| 20260905095902 | 85 | 35 | 0.0 | 0.0 | 0.00 | 0.00 | 0.00 | 66 | 1014.7 |
| 20260905094835 | 85 | 35 | 0.0 | 0.0 | 0.00 | 0.00 | 0.00 | 65 | 1014.7 |
| 20260905094326 | 86 | 35 | 0.0 | 0.0 | 0.00 | 0.00 | 0.00 | 66 | 1014.7 |
| 20260905093927 | 85 | 35 | 0.0 | 0.0 | 0.00 | 0.00 | 0.00 | 66 | 1014.7 |
| 20260905093403 | 86 | 35 | 0.0 | 0.0 | 0.00 | 0.00 | 0.00 | 66 | 1014.7 |
| 20260905092839 | 85 | 35 | 0.0 | 0.0 | 0.00 | 0.00 | 0.00 | 66 | 1014.6 |
| 20260905092350 | 86 | 35 | 0.0 | 0.0 | 0.00 | 0.00 | 0.00 | 67 | 1014.6 |
| 20260905091849 | 85 | 35 | 0.0 | 0.0 | 0.00 | 0.00 | 0.00 | 67 | 1014.6 |
| 20260905091409 | 85 | 35 | 0.0 | 0.0 | 0.00 | 0.00 | 0.00 | 68 | 1014.7 |
| 20260905090838 | 85 | 35 | 0.0 | 0.0 | 0.00 | 0.00 | 0.00 | 68 | 1014.7 |
| 20260905090332 | 85 | 34 | 0.0 | 0.0 | 0.00 | 0.00 | 0.00 | 70 | 1014.7 |
| 20260905085834 | 85 | 34 | 0.0 | 0.0 | 0.00 | 0.00 | 0.00 | 69 | 1014.6 |
| 20260905085351 | 85 | 34 | 0.0 | 0.0 | 0.00 | 0.00 | 0.00 | 70 | 1014.6 |
| 20260905084840 | 84 | 34 | 0.0 | 0.0 | 0.00 | 0.00 | 0.00 | 71 | 1014.6 |
| 20260905084338 | 84 | 34 | 0.0 | 0.0 | 0.00 | 0.00 | 0.00 | 71 | 1014.2 |
| 20260905083916 | 84 | 34 | 0.0 | 0.0 | 0.00 | 0.00 | 0.00 | 70 | 1014.2 |